AXM602 WSSS-WBKK

Flight info

Callsign AXM602
Flight time N/A
Altitude 39000
Route TOMAN5B TOMAN M646 DULIM DULIM2A
Aircraft A20N/M-SDE2E3FGHIRWXY/LB1

Departure

Time 2026-05-07 13:05
Airport Singapore Changi Airport (WSSS)

Arrival

Time N/A
Airport Kota Kinabalu International Airport (WBKK)
Time Latitude Longitude Altitude Speed Heading
2026-05-07 12:09 1.36255 103.99299 26 ft 0 kts 292°
2026-05-07 12:47 1.36254 103.99301 -2 ft 0 kts 293°
2026-05-07 12:47 1.36255 103.99299 -2 ft 0 kts 294°
2026-05-07 12:47 1.36254 103.99301 -2 ft 0 kts 292°
2026-05-07 12:48 1.36255 103.99298 -2 ft 0 kts 291°
2026-05-07 12:48 1.36256 103.99297 -2 ft 1 kts 290°
2026-05-07 12:48 1.36255 103.99298 -2 ft 1 kts 290°
2026-05-07 12:48 1.36248 103.99314 27 ft 1 kts 303°
2026-05-07 12:49 1.36245 103.99318 28 ft 2 kts 306°
2026-05-07 12:49 1.36233 103.99332 30 ft 3 kts 305°
2026-05-07 12:49 1.36224 103.99349 30 ft 3 kts 299°
2026-05-07 12:49 1.36213 103.99367 30 ft 3 kts 302°
2026-05-07 12:50 1.36211 103.99370 30 ft 4 kts 306°
2026-05-07 12:50 1.36188 103.99389 29 ft 4 kts 347°
2026-05-07 12:50 1.36160 103.99389 29 ft 4 kts 17°
2026-05-07 12:50 1.36154 103.99387 29 ft 0 kts 19°
2026-05-07 13:00 1.36162 103.99390 29 ft 1 kts 19°
2026-05-07 13:00 1.36176 103.99394 29 ft 9 kts 18°
2026-05-07 13:00 1.36272 103.99435 30 ft 16 kts 37°
2026-05-07 13:01 1.36319 103.99488 30 ft 7 kts 54°
2026-05-07 13:01 1.36338 103.99530 30 ft 6 kts 81°
2026-05-07 13:01 1.36349 103.99555 30 ft 0 kts 52°
2026-05-07 13:01 1.36386 103.99584 30 ft 18 kts 27°
2026-05-07 13:02 1.36467 103.99661 30 ft 15 kts 84°
2026-05-07 13:02 1.36434 103.99759 29 ft 15 kts 112°
2026-05-07 13:02 1.36410 103.99812 29 ft 0 kts 113°
2026-05-07 13:03 1.36406 103.99820 29 ft 4 kts 113°
2026-05-07 13:03 1.36383 103.99856 29 ft 12 kts 133°
2026-05-07 13:03 1.36266 103.99884 26 ft 24 kts 175°
2026-05-07 13:04 1.36076 103.99848 25 ft 33 kts 211°
2026-05-07 13:04 1.35706 103.99680 26 ft 86 kts 202°
2026-05-07 13:04 1.34998 103.99394 27 ft 132 kts 205°
2026-05-07 13:04 1.34018 103.99026 58 ft 164 kts 197°
2026-05-07 13:05 1.32995 103.98676 573 ft 156 kts 200°
2026-05-07 13:05 1.31913 103.98315 809 ft 173 kts 200°
2026-05-07 13:05 1.30794 103.97919 1389 ft 165 kts 204°
2026-05-07 13:05 1.29783 103.97412 1899 ft 165 kts 210°
2026-05-07 13:06 1.28725 103.96825 2106 ft 183 kts 208°
2026-05-07 13:06 1.28014 103.96456 2246 ft 194 kts 207°
2026-05-07 13:06 1.27572 103.96238 2310 ft 200 kts 206°
2026-05-07 13:06 1.26162 103.95944 2444 ft 218 kts 175°
2026-05-07 13:07 1.24702 103.96483 2582 ft 236 kts 143°
2026-05-07 13:07 1.23661 103.97771 2858 ft 245 kts 113°
2026-05-07 13:07 1.23398 103.99447 3301 ft 249 kts 83°
2026-05-07 13:07 1.23991 104.01091 3660 ft 263 kts 56°
2026-05-07 13:08 1.25368 104.02348 4142 ft 275 kts 31°
2026-05-07 13:08 1.26842 104.03548 4947 ft 275 kts 53°
2026-05-07 13:08 1.27648 104.05271 5703 ft 276 kts 80°
2026-05-07 13:08 1.27832 104.07187 6446 ft 278 kts 89°
2026-05-07 13:09 1.27862 104.09127 7179 ft 280 kts 90°
2026-05-07 13:09 1.27904 104.11082 7896 ft 283 kts 88°
2026-05-07 13:09 1.27994 104.13056 8602 ft 286 kts 87°
2026-05-07 13:09 1.28125 104.15048 9305 ft 289 kts 86°
2026-05-07 13:10 1.28280 104.17056 9974 ft 291 kts 85°
2026-05-07 13:10 1.28448 104.19119 10322 ft 308 kts 85°
2026-05-07 13:10 1.28640 104.21319 10514 ft 327 kts 84°
2026-05-07 13:10 1.28852 104.23647 10778 ft 342 kts 84°
2026-05-07 13:11 1.29060 104.26023 11369 ft 344 kts 84°
2026-05-07 13:11 1.29261 104.28413 11998 ft 346 kts 85°
2026-05-07 13:11 1.29458 104.30822 12599 ft 349 kts 85°
2026-05-07 13:11 1.29654 104.33250 13192 ft 352 kts 85°
2026-05-07 13:12 1.29850 104.35693 13760 ft 354 kts 85°
2026-05-07 13:12 1.30047 104.38160 14280 ft 357 kts 85°
2026-05-07 13:12 1.30247 104.40636 14794 ft 359 kts 85°
2026-05-07 13:12 1.30449 104.43131 15300 ft 361 kts 85°
2026-05-07 13:13 1.30649 104.45611 15796 ft 364 kts 85°
2026-05-07 13:13 1.30854 104.48137 16286 ft 366 kts 85°
2026-05-07 13:13 1.31059 104.50680 16765 ft 369 kts 85°
2026-05-07 13:13 1.31216 104.52630 17131 ft 370 kts 85°
2026-05-07 13:14 1.31424 104.55202 17601 ft 372 kts 85°
2026-05-07 13:14 1.31633 104.57791 18057 ft 375 kts 85°
2026-05-07 13:14 1.31844 104.60401 18449 ft 378 kts 85°
2026-05-07 13:14 1.32056 104.63025 18825 ft 380 kts 85°
2026-05-07 13:15 1.32270 104.65664 19201 ft 383 kts 85°
2026-05-07 13:15 1.32485 104.68325 19578 ft 385 kts 85°
2026-05-07 13:15 1.32701 104.71002 19942 ft 388 kts 85°
2026-05-07 13:15 1.32919 104.73697 20319 ft 390 kts 85°
2026-05-07 13:16 1.33138 104.76408 20680 ft 393 kts 85°
2026-05-07 13:16 1.33358 104.79136 21035 ft 395 kts 85°
2026-05-07 13:16 1.33581 104.81882 21390 ft 398 kts 85°
2026-05-07 13:16 1.33804 104.84644 21739 ft 400 kts 85°
2026-05-07 13:17 1.34029 104.87426 22084 ft 402 kts 85°
2026-05-07 13:17 1.34206 104.90227 22410 ft 405 kts 88°
2026-05-07 13:17 1.34265 104.93042 22761 ft 407 kts 88°
2026-05-07 13:17 1.34330 104.95881 23094 ft 410 kts 88°
2026-05-07 13:18 1.34399 104.98737 23413 ft 412 kts 88°
2026-05-07 13:18 1.34468 105.01606 23687 ft 414 kts 88°
2026-05-07 13:18 1.34537 105.04486 23972 ft 416 kts 88°
2026-05-07 13:18 1.34607 105.07383 24252 ft 418 kts 88°
2026-05-07 13:19 1.34677 105.10291 24517 ft 419 kts 88°
2026-05-07 13:19 1.34746 105.13209 24789 ft 421 kts 88°
2026-05-07 13:19 1.34816 105.16140 25050 ft 423 kts 88°
2026-05-07 13:19 1.34888 105.19086 25308 ft 425 kts 88°
2026-05-07 13:20 1.34961 105.22043 25561 ft 426 kts 88°
2026-05-07 13:20 1.35033 105.25010 25816 ft 428 kts 88°
2026-05-07 13:20 1.35105 105.27990 26055 ft 430 kts 88°
2026-05-07 13:20 1.35175 105.30945 26289 ft 432 kts 88°
2026-05-07 13:21 1.35246 105.33949 26536 ft 433 kts 88°
2026-05-07 13:21 1.35318 105.36966 26753 ft 435 kts 88°
2026-05-07 13:21 1.35389 105.39995 26977 ft 437 kts 88°
2026-05-07 13:21 1.35461 105.43029 27206 ft 438 kts 88°
2026-05-07 13:22 1.35533 105.46080 27417 ft 440 kts 88°
2026-05-07 13:22 1.35606 105.49140 27626 ft 441 kts 88°
2026-05-07 13:22 1.35679 105.52210 27839 ft 443 kts 88°
2026-05-07 13:22 1.35752 105.55292 28038 ft 444 kts 88°
2026-05-07 13:23 1.35825 105.58385 28238 ft 446 kts 88°
2026-05-07 13:23 1.35898 105.61485 28435 ft 447 kts 88°
2026-05-07 13:23 1.35972 105.64599 28622 ft 449 kts 88°
2026-05-07 13:23 1.36046 105.67721 28811 ft 450 kts 88°
2026-05-07 13:24 1.36120 105.70856 28988 ft 452 kts 88°
2026-05-07 13:24 1.36195 105.73997 29179 ft 453 kts 88°
2026-05-07 13:24 1.36467 105.77136 29338 ft 454 kts 81°
2026-05-07 13:24 1.37084 105.80237 29506 ft 456 kts 75°
2026-05-07 13:25 1.38033 105.83265 29675 ft 457 kts 69°
2026-05-07 13:25 1.39194 105.86223 29845 ft 458 kts 69°
2026-05-07 13:25 1.40354 105.89196 30006 ft 460 kts 69°
2026-05-07 13:25 1.41511 105.92179 30158 ft 461 kts 69°
2026-05-07 13:26 1.42654 105.95127 30316 ft 462 kts 69°
2026-05-07 13:26 1.43816 105.98124 30471 ft 463 kts 69°
2026-05-07 13:26 1.44982 106.01129 30634 ft 464 kts 69°
2026-05-07 13:26 1.46149 106.04136 30794 ft 465 kts 69°
2026-05-07 13:27 1.47321 106.07154 30990 ft 465 kts 69°
2026-05-07 13:27 1.48491 106.10168 31211 ft 465 kts 69°
2026-05-07 13:27 1.49658 106.13172 31444 ft 464 kts 69°
2026-05-07 13:27 1.50826 106.16180 31652 ft 464 kts 69°
2026-05-07 13:28 1.51993 106.19188 31861 ft 463 kts 69°
2026-05-07 13:28 1.53158 106.22186 32072 ft 463 kts 69°
2026-05-07 13:28 1.54322 106.25185 32272 ft 462 kts 69°
2026-05-07 13:28 1.55483 106.28178 32476 ft 462 kts 69°
2026-05-07 13:29 1.56643 106.31168 32674 ft 461 kts 69°
2026-05-07 13:29 1.57802 106.34157 32815 ft 461 kts 69°
2026-05-07 13:29 1.60117 106.40126 32840 ft 460 kts 69°
2026-05-07 13:30 1.62428 106.46085 32840 ft 460 kts 69°
2026-05-07 13:30 1.64737 106.52039 32839 ft 460 kts 69°
2026-05-07 13:31 1.67049 106.58003 32892 ft 461 kts 69°
2026-05-07 13:31 1.68206 106.60986 33083 ft 460 kts 69°
2026-05-07 13:31 1.69362 106.63967 33267 ft 460 kts 69°
2026-05-07 13:32 1.70516 106.66943 33467 ft 459 kts 69°
2026-05-07 13:32 1.71670 106.69918 33656 ft 459 kts 69°
2026-05-07 13:32 1.72822 106.72894 33810 ft 458 kts 69°
2026-05-07 13:32 1.73972 106.75867 33969 ft 458 kts 69°
2026-05-07 13:33 1.75120 106.78837 34110 ft 458 kts 69°
2026-05-07 13:33 1.76268 106.81804 34255 ft 457 kts 69°
2026-05-07 13:33 1.77413 106.84764 34393 ft 457 kts 69°
2026-05-07 13:33 1.78560 106.87730 34526 ft 457 kts 69°
2026-05-07 13:34 1.79703 106.90685 34670 ft 456 kts 69°
2026-05-07 13:34 1.81990 106.96601 34839 ft 456 kts 69°
2026-05-07 13:35 1.84272 107.02503 34845 ft 455 kts 69°
2026-05-07 13:35 1.86554 107.08404 34843 ft 455 kts 69°
2026-05-07 13:36 1.88822 107.14272 34845 ft 455 kts 69°
2026-05-07 13:36 1.91105 107.20177 34846 ft 455 kts 69°
2026-05-07 13:37 1.93389 107.26086 34849 ft 456 kts 69°
2026-05-07 13:37 1.95672 107.31994 34847 ft 456 kts 69°
2026-05-07 13:38 1.97955 107.37903 34848 ft 456 kts 69°
2026-05-07 13:38 2.00239 107.43815 34848 ft 456 kts 69°
2026-05-07 13:39 2.02535 107.49720 34851 ft 456 kts 69°
2026-05-07 13:39 2.04842 107.55627 34849 ft 456 kts 69°
2026-05-07 13:40 2.07145 107.61532 34850 ft 456 kts 69°
2026-05-07 13:40 2.09445 107.67433 34850 ft 456 kts 69°
2026-05-07 13:41 2.11747 107.73341 34849 ft 456 kts 69°
2026-05-07 13:41 2.14049 107.79250 34849 ft 456 kts 69°
2026-05-07 13:42 2.16348 107.85152 34846 ft 456 kts 69°
2026-05-07 13:42 2.18633 107.91060 34851 ft 456 kts 70°
2026-05-07 13:43 2.20916 107.96978 34851 ft 456 kts 70°
2026-05-07 13:43 2.22814 108.01894 34850 ft 456 kts 69°
2026-05-07 13:44 2.25470 108.08772 34847 ft 456 kts 69°
2026-05-07 13:44 2.27755 108.14688 34848 ft 456 kts 69°
2026-05-07 13:45 2.30042 108.20612 34848 ft 457 kts 69°
2026-05-07 13:45 2.32329 108.26535 34853 ft 457 kts 69°
2026-05-07 13:46 2.34246 108.31502 34853 ft 457 kts 69°
2026-05-07 13:46 2.36536 108.37436 34857 ft 457 kts 69°
2026-05-07 13:47 2.38813 108.43335 34857 ft 457 kts 69°
2026-05-07 13:47 2.41104 108.49274 34861 ft 458 kts 69°
2026-05-07 13:48 2.43396 108.55214 34859 ft 458 kts 69°
2026-05-07 13:48 2.45685 108.61147 34861 ft 458 kts 69°
2026-05-07 13:49 2.47977 108.67088 34858 ft 458 kts 69°
2026-05-07 13:49 2.50268 108.73029 34860 ft 457 kts 69°
2026-05-07 13:50 2.52558 108.78969 34853 ft 457 kts 69°
2026-05-07 13:50 2.54843 108.84902 34857 ft 457 kts 69°
2026-05-07 13:51 2.57129 108.90835 34855 ft 457 kts 69°
2026-05-07 13:51 2.59419 108.96760 34853 ft 457 kts 69°
2026-05-07 13:52 2.61722 109.02679 34852 ft 457 kts 69°
2026-05-07 13:52 2.64023 109.08596 34850 ft 456 kts 69°
2026-05-07 13:53 2.66321 109.14511 34848 ft 456 kts 69°
2026-05-07 13:53 2.68604 109.20390 34849 ft 456 kts 69°
2026-05-07 13:54 2.70915 109.26341 34846 ft 456 kts 69°
2026-05-07 13:54 2.73209 109.32250 34847 ft 456 kts 69°
2026-05-07 13:55 2.75503 109.38160 34850 ft 456 kts 69°
2026-05-07 13:55 2.77795 109.44068 34854 ft 456 kts 69°
2026-05-07 13:56 2.80088 109.49976 34855 ft 455 kts 69°
2026-05-07 13:56 2.82365 109.55845 34856 ft 455 kts 69°
2026-05-07 13:57 2.84657 109.61752 34853 ft 455 kts 69°
2026-05-07 13:57 2.86962 109.67694 34854 ft 455 kts 69°
2026-05-07 13:58 2.89238 109.73563 34857 ft 455 kts 69°
2026-05-07 13:58 2.91527 109.79465 34853 ft 455 kts 69°
2026-05-07 13:59 2.93816 109.85367 34854 ft 455 kts 69°
2026-05-07 13:59 2.96107 109.91277 34857 ft 455 kts 69°
2026-05-07 14:00 2.98395 109.97178 34854 ft 455 kts 69°
2026-05-07 14:00 3.00683 110.03079 34857 ft 455 kts 69°
2026-05-07 14:01 3.02969 110.08978 34854 ft 455 kts 69°
2026-05-07 14:01 3.05254 110.14877 34861 ft 455 kts 69°
2026-05-07 14:02 3.07538 110.20773 34860 ft 454 kts 69°
2026-05-07 14:02 3.09822 110.26668 34857 ft 455 kts 69°
2026-05-07 14:03 3.12106 110.32568 34856 ft 454 kts 69°
2026-05-07 14:03 3.14388 110.38463 34854 ft 454 kts 69°
2026-05-07 14:04 3.16672 110.44363 34850 ft 454 kts 69°